Weather History for Elizabethton, TN

Change the Weather History Date:

Wednesday, October 10, 2012

  Actual Average (KTRI) Record (KTRI)
Temperature  
Mean Temperature 47 °F 58 °F  
Max Temperature 55 °F 71 °F 85 °F (1949)
Min Temperature 39 °F 45 °F 27 °F (2000)
Degree Days  
Heating Degree Days 18 7  
Month to date heating degree days 61  
Since 1 July heating degree days 114  
Cooling Degree Days 0 0  
Month to date cooling degree days 9  
Year to date cooling degree days 977  
Moisture  
Dew Point 46 °F    
Average Humidity 88    
Maximum Humidity 100    
Minimum Humidity 77    
Precipitation  
Precipitation 0.00 in 0.07 in 0.66 in (1941)
Month to date precipitation 0.68  
Year to date precipitation 33.12  
Snow  
Snow 0.00 in 0.00 in - ()
Month to date snowfall 0.0  
Since 1 July snowfall 0.0  
Since 1 September snowfall 0.0  
Snow Depth -    
Sea Level Pressure  
Sea Level Pressure 30.12 in    
Wind  
Wind Speed 2 mph (WSW)    
Max Wind Speed 10 mph    
Max Gust Speed -    
Visibility 10 miles    
Events Rain    
T = Trace of Precipitation, MM = Missing Value Source: NWS Daily Summary

Daily Weather History Graph

Daily Weather History Graph

Search for Another Location

Airport:

Trip Planner

Search our weather history database for the weather conditions in past years. The results will help you decide how hot, cold, wet, or windy it might be!

Date:

Astronomy

Oct. 10, 2012 Rise Set
Actual Time 7:31 AM EDT 6:58 PM EDT
Civil Twilight 7:06 AM EDT 7:24 PM EDT
Nautical Twilight 6:36 AM EDT 7:54 PM EDT
Astronomical Twilight 6:06 AM EDT 8:24 PM EDT
Moon 2:15 AM EDT (10/10) 3:53 PM EDT (10/10)
Length of Visible Light 12h 18m
Length of Day
11h 26m
Waning Crescent, 27% of the Moon is Illuminated
Oct 10
Waning Crescent
Oct 15
New
Oct 21
First Quarter
Oct 29
Full
Nov 6
Last Quarter

Hourly Weather History & Observations

Time (EDT) Temp. Windchill Dew Point Humidity Pressure Visibility Wind Dir Wind Speed Gust Speed Precip Events Conditions
12:55 AM 39.2 °F - 39.2 °F 100% 30.10 in 10.0 mi Calm Calm - N/A   Mostly Cloudy
1:15 AM 42.8 °F - 41.0 °F 93% 30.10 in 10.0 mi Calm Calm - N/A   Overcast
1:35 AM 42.8 °F - 42.8 °F 100% 30.10 in 10.0 mi Calm Calm - N/A   Overcast
1:55 AM 42.8 °F - 42.8 °F 100% 30.10 in 10.0 mi Calm Calm - N/A   Overcast
2:15 AM 42.8 °F - 42.8 °F 100% 30.09 in 10.0 mi Calm Calm - N/A   Overcast
2:35 AM 44.6 °F - 42.8 °F 93% 30.08 in 10.0 mi Calm Calm - N/A   Overcast
2:55 AM 44.6 °F - 42.8 °F 93% 30.09 in 10.0 mi Calm Calm - N/A   Overcast
3:15 AM 44.6 °F - 42.8 °F 93% 30.08 in 10.0 mi Calm Calm - N/A   Mostly Cloudy
3:35 AM 42.8 °F - 42.8 °F 100% 30.08 in 10.0 mi Calm Calm - N/A   Partly Cloudy
3:55 AM 42.8 °F - 42.8 °F 100% 30.07 in 10.0 mi Calm Calm - N/A   Clear
4:15 AM 42.8 °F 40.1 °F 42.8 °F 100% 30.07 in 10.0 mi ENE 4.6 mph - N/A   Clear
4:35 AM 41.0 °F - 41.0 °F 100% 30.07 in 10.0 mi Calm Calm - N/A   Clear
4:55 AM 42.8 °F - 42.8 °F 100% 30.07 in 10.0 mi Calm Calm - N/A   Mostly Cloudy
5:15 AM 42.8 °F 40.1 °F 42.8 °F 100% 30.07 in 10.0 mi ENE 4.6 mph - N/A   Overcast
5:35 AM 44.6 °F - 44.6 °F 100% 30.08 in 10.0 mi Calm Calm - N/A   Overcast
5:55 AM 44.6 °F 43.1 °F 44.6 °F 100% 30.08 in 10.0 mi NE 3.5 mph - N/A   Overcast
6:15 AM 44.6 °F - 44.6 °F 100% 30.09 in 10.0 mi Calm Calm - N/A   Overcast
6:35 AM 44.6 °F - 44.6 °F 100% 30.10 in 10.0 mi Calm Calm - N/A   Overcast
6:55 AM 46.4 °F - 44.6 °F 93% 30.11 in 10.0 mi Calm Calm - N/A   Overcast
7:15 AM 46.4 °F - 44.6 °F 93% 30.11 in 10.0 mi Calm Calm - N/A   Overcast
7:35 AM 46.4 °F - 44.6 °F 93% 30.11 in 10.0 mi Calm Calm - N/A   Overcast
7:55 AM 46.4 °F - 44.6 °F 93% 30.12 in 10.0 mi Calm Calm - N/A   Overcast
8:15 AM 46.4 °F - 44.6 °F 93% 30.12 in 10.0 mi Calm Calm - N/A   Overcast
8:35 AM 46.4 °F - 44.6 °F 93% 30.13 in 10.0 mi Calm Calm - N/A   Overcast
8:55 AM 46.4 °F - 44.6 °F 93% 30.13 in 10.0 mi Calm Calm - N/A   Overcast
9:35 AM 48.2 °F - 46.4 °F 93% 30.13 in 10.0 mi Calm Calm - N/A   Overcast
9:55 AM 50.0 °F - 46.4 °F 87% 30.13 in 10.0 mi Variable 3.5 mph - N/A   Overcast
10:15 AM 51.8 °F - 46.4 °F 82% 30.13 in 10.0 mi West 3.5 mph - N/A   Overcast
10:35 AM 51.8 °F - 46.4 °F 82% 30.14 in 10.0 mi West 4.6 mph - N/A   Overcast
10:55 AM 51.8 °F - 48.2 °F 88% 30.14 in 10.0 mi Variable 5.8 mph - N/A   Overcast
11:15 AM 53.6 °F - 48.2 °F 82% 30.13 in 10.0 mi WSW 6.9 mph - N/A   Overcast
11:35 AM 53.6 °F - 48.2 °F 82% 30.13 in 10.0 mi WSW 3.5 mph - N/A   Overcast
11:55 AM 53.6 °F - 48.2 °F 82% 30.13 in 10.0 mi WSW 4.6 mph - N/A   Overcast
12:15 PM 53.6 °F - 48.2 °F 82% 30.13 in 10.0 mi Variable 6.9 mph - N/A   Overcast
12:55 PM 55.4 °F - 48.2 °F 77% 30.12 in 10.0 mi WSW 6.9 mph - N/A   Overcast
1:15 PM 55.4 °F - 48.2 °F 77% 30.12 in 10.0 mi WSW 5.8 mph - N/A   Overcast
1:35 PM 55.4 °F - 48.2 °F 77% 30.10 in 10.0 mi SW 8.1 mph - N/A   Overcast
1:55 PM 55.4 °F - 48.2 °F 77% 30.10 in 10.0 mi WSW 6.9 mph - N/A   Overcast
2:15 PM 55.4 °F - 48.2 °F 77% 30.10 in 10.0 mi West 6.9 mph - N/A   Overcast
2:35 PM 55.4 °F - 48.2 °F 77% 30.10 in 10.0 mi WSW 8.1 mph - N/A   Overcast
2:55 PM 55.4 °F - 48.2 °F 77% 30.09 in 10.0 mi WSW 6.9 mph - N/A   Overcast
3:15 PM 55.4 °F - 48.2 °F 77% 30.10 in 10.0 mi West 9.2 mph - N/A   Overcast
3:35 PM 55.4 °F - 48.2 °F 77% 30.10 in 10.0 mi WSW 6.9 mph - N/A   Overcast
3:55 PM 55.4 °F - 48.2 °F 77% 30.10 in 10.0 mi WSW 8.1 mph - N/A   Overcast
4:15 PM 55.4 °F - 48.2 °F 77% 30.10 in 10.0 mi West 10.4 mph - N/A   Overcast
4:35 PM 55.4 °F - 48.2 °F 77% 30.10 in 10.0 mi Variable 6.9 mph - N/A   Overcast
4:55 PM 55.4 °F - 48.2 °F 77% 30.11 in 10.0 mi WSW 5.8 mph - N/A   Overcast
5:15 PM 55.4 °F - 48.2 °F 77% 30.11 in 10.0 mi WSW 8.1 mph - N/A   Mostly Cloudy
5:35 PM 55.4 °F - 48.2 °F 77% 30.11 in 10.0 mi WSW 8.1 mph - N/A   Overcast
5:55 PM 55.4 °F - 48.2 °F 77% 30.11 in 10.0 mi WSW 5.8 mph - N/A   Overcast
6:15 PM 55.4 °F - 48.2 °F 77% 30.12 in 10.0 mi WSW 6.9 mph - N/A   Overcast
6:35 PM 55.4 °F - 48.2 °F 77% 30.13 in 10.0 mi WSW 6.9 mph - N/A   Mostly Cloudy
6:55 PM 53.6 °F - 48.2 °F 82% 30.13 in 10.0 mi WSW 5.8 mph - N/A   Mostly Cloudy
7:15 PM 53.6 °F - 48.2 °F 82% 30.14 in 10.0 mi West 6.9 mph - N/A   Mostly Cloudy
7:35 PM 53.6 °F - 48.2 °F 82% 30.14 in 10.0 mi WSW 6.9 mph - N/A   Mostly Cloudy
7:55 PM 53.6 °F - 48.2 °F 82% 30.15 in 10.0 mi WSW 4.6 mph - N/A   Mostly Cloudy
8:15 PM 53.6 °F - 48.2 °F 82% 30.15 in 10.0 mi West 3.5 mph - N/A   Mostly Cloudy
8:35 PM 53.6 °F - 48.2 °F 82% 30.16 in 10.0 mi West 5.8 mph - N/A   Scattered Clouds
8:55 PM 51.8 °F - 48.2 °F 88% 30.17 in 10.0 mi Variable 3.5 mph - N/A   Partly Cloudy
9:15 PM 50.0 °F - 46.4 °F 87% 30.17 in 10.0 mi West 3.5 mph - N/A   Clear
9:35 PM 50.0 °F - 46.4 °F 87% 30.18 in 10.0 mi Calm Calm - N/A   Clear
9:55 PM 48.2 °F - 46.4 °F 93% 30.18 in 10.0 mi WNW 3.5 mph - N/A   Clear
10:15 PM 48.2 °F - 44.6 °F 87% 30.19 in 10.0 mi Calm Calm - N/A   Clear
10:35 PM 46.4 °F - 44.6 °F 93% 30.20 in 10.0 mi Calm Calm - N/A   Clear
10:55 PM 44.6 °F - 42.8 °F 93% 30.20 in 10.0 mi Calm Calm - N/A   Clear
11:15 PM 42.8 °F - 42.8 °F 100% 30.21 in 7.0 mi Calm Calm - N/A   Clear
11:35 PM 42.8 °F 41.1 °F 42.8 °F 100% 30.21 in 7.0 mi East 3.5 mph - N/A   Clear
11:55 PM 42.8 °F - 42.8 °F 100% 30.21 in 6.0 mi Calm Calm - N/A Rain Light Rain